Date String (YYYY-MM-DD hh:mm:ss) UTC,Instrument flags,absolute air pressure of the measurement (hPa),sample flow rate (lpm),inlet stack bypass flow (lpm),air temperature of the measurement (°C),ambient temperature measured by the external sensor (°C),aerosol sample conditioner tube jacket temperature (°C),OPC LED temperature (°C),internal box temperature (°C),relative humidity of the measurement (%),span deviation,mass concentration of particles derived from Lorenz-Mie calculation of OPC scattering (μg/m³),mass concentration of particles derived from Lorenz-Mie calculation of OPC scattering (μg/m³),mass concentration of particles derived from Lorenz-Mie calculation of OPC scattering (μg/m³)
DateTimeUTC,F1_M11,P_M11,Q1_M11,Q2_M11,T1_M11,T2_M11,T3_M11,T4_M11,T5_M11,U1_M11,ZSPAN_M11,X0_M11,X2_M11,X1_M11
2023-10-15 20:00:00,SystemResetWarning,0839.3,4.99,000.00,029.2,027.3,000.0,037.5,030.9,12.6,0000.0,0007.68,0003.32,0003.06
2023-10-15 20:01:00,SystemResetWarning,0839.4,5.00,000.00,029.1,025.5,000.0,037.4,030.7,12.5,0000.0,0007.76,0003.33,0003.06
2023-10-15 20:02:00,SystemResetWarning,0839.3,5.02,000.00,029.1,025.1,000.0,037.4,030.6,12.6,0000.0,0007.70,0003.34,0003.07
2023-10-15 20:03:00,SystemResetWarning,0839.3,5.00,000.00,028.9,025.3,000.0,037.4,030.4,12.7,0000.0,0007.66,0003.34,0003.07
2023-10-15 20:04:00,SystemResetWarning,0839.3,5.00,000.00,028.9,025.7,000.0,037.4,030.3,12.8,0000.0,0007.12,0003.33,0003.06
2023-10-15 20:05:00,SystemResetWarning,0839.3,4.99,000.00,028.9,026.0,000.0,037.4,030.3,12.8,0000.0,0006.65,0003.30,0003.05
2023-10-15 20:06:00,SystemResetWarning,0839.3,4.99,000.00,028.8,026.4,000.0,037.4,030.3,12.7,0000.0,0006.44,0003.26,0003.01
2023-10-15 20:07:00,SystemResetWarning,0839.2,5.00,000.00,028.8,026.7,000.0,037.4,030.4,12.8,0000.0,0005.68,0003.23,0002.98
2023-10-15 20:08:00,SystemResetWarning,0839.2,5.01,000.00,028.9,026.9,000.0,037.4,030.4,12.9,0000.0,0004.52,0003.20,0002.96
2023-10-15 20:09:00,SystemResetWarning,0839.2,5.00,000.00,028.9,027.1,000.0,037.4,030.5,12.8,0000.0,0004.22,0003.19,0002.96
2023-10-15 20:10:00,SystemResetWarning,0839.2,4.99,000.00,028.9,027.3,000.0,037.4,030.5,12.9,0000.0,0004.18,0003.18,0002.95
2023-10-15 20:11:00,SystemResetWarning,0839.2,4.99,000.00,028.9,027.5,000.0,037.4,030.6,12.8,0000.0,0004.17,0003.17,0002.95
2023-10-15 20:12:00,SystemResetWarning,0839.3,4.99,000.00,029.0,027.6,000.0,037.4,030.6,12.7,0000.0,0004.05,0003.16,0002.94
2023-10-15 20:13:00,SystemResetWarning,0839.2,5.01,000.00,029.0,027.7,000.0,037.4,030.7,12.7,0000.0,0004.08,0003.13,0002.91
2023-10-15 20:14:00,SystemResetWarning,0839.2,5.01,000.00,029.0,027.8,000.0,037.4,030.7,12.6,0000.0,0004.14,0003.12,0002.91
2023-10-15 20:15:00,SystemResetWarning,0839.2,4.99,000.00,029.1,027.9,000.0,037.4,030.8,12.6,0000.0,0004.18,0003.14,0002.92
2023-10-15 20:16:00,SystemResetWarning,0839.2,4.99,000.00,029.1,028.0,000.0,037.5,030.8,12.6,0000.0,0004.41,0003.17,0002.94
2023-10-15 20:17:00,SystemResetWarning,0839.2,4.99,000.00,029.1,028.0,000.0,037.5,030.8,12.6,0000.0,0004.77,0003.23,0002.97
2023-10-15 20:18:00,SystemResetWarning,0839.1,5.00,000.00,029.1,026.5,000.0,037.4,030.7,12.7,0000.0,0005.17,0003.26,0003.00
2023-10-15 20:19:00,SystemResetWarning,0839.1,5.00,000.00,029.0,024.5,000.0,037.3,030.5,12.9,0000.0,0005.18,0003.26,0003.02
2023-10-15 20:20:00,SystemResetWarning,0839.1,5.00,000.00,028.9,024.2,000.0,037.3,030.3,13.0,0000.0,0005.23,0003.28,0003.05
2023-10-15 20:21:00,SystemResetWarning,0839.1,5.01,000.00,028.8,024.4,000.0,037.3,030.1,13.0,0000.0,0005.63,0003.30,0003.09
2023-10-15 20:22:00,SystemResetWarning,0839.1,5.00,000.00,028.7,024.9,000.0,037.3,030.0,13.1,0000.0,0006.32,0003.33,0003.11
2023-10-15 20:23:00,SystemResetWarning,0839.1,5.00,000.00,028.6,025.3,000.0,037.2,030.0,13.1,0000.0,0006.56,0003.34,0003.12
2023-10-15 20:24:00,SystemResetWarning,0839.1,4.99,000.00,028.6,025.7,000.0,037.2,030.1,13.1,0000.0,0006.68,0003.37,0003.13
2023-10-15 20:25:00,SystemResetWarning,0839.1,4.99,000.00,028.6,026.1,000.0,037.2,030.1,13.2,0000.0,0007.07,0003.38,0003.14
2023-10-15 20:26:00,SystemResetWarning,0839.1,5.00,000.00,028.6,026.4,000.0,037.2,030.2,13.2,0000.0,0007.51,0003.40,0003.16
2023-10-15 20:27:00,SystemResetWarning,0839.1,5.00,000.00,028.6,026.7,000.0,037.2,030.3,13.2,0000.0,0007.45,0003.39,0003.16
2023-10-15 20:28:00,SystemResetWarning,0839.1,5.00,000.00,028.6,026.9,000.0,037.2,030.3,13.1,0000.0,0007.36,0003.36,0003.15
2023-10-15 20:29:00,SystemResetWarning,0839.1,4.98,000.00,028.7,027.1,000.0,037.2,030.4,13.2,0000.0,0007.05,0003.35,0003.15
2023-10-15 20:30:00,SystemResetWarning,0839.1,5.01,000.00,028.7,027.3,000.0,037.2,030.4,13.3,0000.0,0007.13,0003.36,0003.14
2023-10-15 20:31:00,SystemResetWarning,0839.1,5.01,000.00,028.7,027.4,000.0,037.2,030.5,13.1,0000.0,0007.17,0003.34,0003.11
2023-10-15 20:32:00,SystemResetWarning,0839.0,5.00,000.00,028.8,027.5,000.0,037.2,030.5,13.0,0000.0,0007.02,0003.30,0003.06
2023-10-15 20:33:00,SystemResetWarning,0838.9,4.99,000.00,028.8,027.7,000.0,037.2,030.5,13.0,0000.0,0006.02,0003.26,0002.99
2023-10-15 20:34:00,SystemResetWarning,0838.8,4.99,000.00,028.8,027.7,000.0,037.2,030.6,13.1,0000.0,0005.82,0003.22,0002.94
2023-10-15 20:35:00,SystemResetWarning,0838.8,4.99,000.00,028.9,027.8,000.0,037.2,030.6,13.1,0000.0,0005.60,0003.19,0002.92
2023-10-15 20:36:00,SystemResetWarning,0838.9,5.01,000.00,028.9,027.9,000.0,037.3,030.7,13.1,0000.0,0005.31,0003.19,0002.90
2023-10-15 20:37:00,SystemResetWarning,0838.9,5.00,000.00,029.0,028.0,000.0,037.3,030.7,13.1,0000.0,0004.58,0003.19,0002.89
2023-10-15 20:38:00,SystemResetWarning,0838.9,4.99,000.00,029.0,028.0,000.0,037.3,030.8,13.0,0000.0,0004.62,0003.21,0002.90
2023-10-15 20:39:00,SystemResetWarning,0838.9,4.99,000.00,029.0,028.1,000.0,037.3,030.8,13.0,0000.0,0004.43,0003.20,0002.90
2023-10-15 20:40:00,SystemResetWarning,0838.9,5.00,000.00,029.1,027.4,000.0,037.3,030.8,12.9,0000.0,0004.43,0003.21,0002.90
2023-10-15 20:41:00,SystemResetWarning,0838.9,5.01,000.00,029.0,025.2,000.0,037.3,030.5,12.9,0000.0,0004.90,0003.24,0002.92
2023-10-15 20:42:00,SystemResetWarning,0838.9,5.01,000.00,028.9,024.2,000.0,037.2,030.3,13.0,0000.0,0005.15,0003.25,0002.94
2023-10-15 20:43:00,SystemResetWarning,0838.8,5.01,000.00,028.8,024.4,000.0,037.2,030.2,13.0,0000.0,0005.31,0003.29,0002.99
2023-10-15 20:44:00,SystemResetWarning,0838.8,4.99,000.00,028.7,024.7,000.0,037.2,030.0,13.0,0000.0,0005.37,0003.31,0003.03
2023-10-15 20:45:00,SystemResetWarning,0838.8,5.00,000.00,028.6,025.2,000.0,037.2,030.0,13.2,0000.0,0005.38,0003.33,0003.06
2023-10-15 20:46:00,SystemResetWarning,0838.8,5.01,000.00,028.6,025.6,000.0,037.2,030.1,13.2,0000.0,0005.84,0003.34,0003.08
2023-10-15 20:47:00,SystemResetWarning,0838.8,5.00,000.00,028.6,026.0,000.0,037.1,030.1,13.3,0000.0,0007.32,0003.36,0003.08
2023-10-15 20:48:00,SystemResetWarning,0838.8,5.00,000.00,028.6,026.4,000.0,037.1,030.2,13.7,0000.0,0007.38,0003.36,0003.07
2023-10-15 20:49:00,SystemResetWarning,0838.8,5.00,000.00,028.6,026.6,000.0,037.1,030.2,13.6,0000.0,0007.35,0003.34,0003.05
2023-10-15 20:50:00,SystemResetWarning,0838.8,5.00,000.00,028.6,026.9,000.0,037.1,030.3,13.5,0000.0,0007.37,0003.35,0003.03
2023-10-15 20:51:00,SystemResetWarning,0838.8,5.00,000.00,028.6,027.1,000.0,037.1,030.4,13.4,0000.0,0007.33,0003.35,0003.04
2023-10-15 20:52:00,SystemResetWarning,0838.8,5.00,000.00,028.7,027.3,000.0,037.1,030.4,13.3,0000.0,0007.24,0003.34,0003.04
2023-10-15 20:53:00,SystemResetWarning,0838.8,4.99,000.00,028.7,027.4,000.0,037.1,030.4,13.5,0000.0,0007.10,0003.36,0003.05
2023-10-15 20:54:00,SystemResetWarning,0838.8,5.01,000.00,028.7,027.5,000.0,037.1,030.5,13.8,0000.0,0007.00,0003.35,0003.05
2023-10-15 20:55:00,SystemResetWarning,0838.9,5.00,000.00,028.8,027.6,000.0,037.1,030.5,13.4,0000.0,0006.98,0003.33,0003.04
2023-10-15 20:56:00,SystemResetWarning,0838.9,4.99,000.00,028.8,027.7,000.0,037.2,030.6,13.4,0000.0,0007.03,0003.34,0003.04
2023-10-15 20:57:00,SystemResetWarning,0838.9,5.00,000.00,028.9,027.8,000.0,037.2,030.6,13.5,0000.0,0007.29,0003.37,0003.06
2023-10-15 20:58:00,SystemResetWarning,0838.9,5.01,000.00,028.9,027.9,000.0,037.2,030.7,13.3,0000.0,0005.83,0003.35,0003.06
2023-10-15 20:59:00,SystemResetWarning,0838.8,5.00,000.00,028.9,028.0,000.0,037.2,030.7,13.2,0000.0,0006.39,0003.35,0003.09
